Location: Neuvy Saint Sepulchre
(46.5953°N, 1.8122°E)
Time: 09:15:59
(UTC+02:00)

ISS - Pass Details

Date: 23 March 2024
Orbit: 413 x 419 km, 51.6° (Epoch: 13 April)

Event Time Altitude Azimuth Distance (km) Brightness Sun altitude
Rises 22:12:05 0° 296° (WNW) 2,370 1.2 -29.6°
Reaches altitude 10° 22:14:11 10° 296° (WNW) 1,505 -0.1 -29.9°
Enters shadow 22:14:48 15° 295° (WNW) 1,254 -0.6 -29.9°
